Location: Astronomy Club of Akron Observatory
(40.9700°N, 81.5606°W)
Time: 20:23:28
(UTC-04:00)

ISS - Pass Details

Date: 13 July 2018
Orbit: 402 x 408 km, 51.6° (Epoch: 17 July)

Event Time Altitude Azimuth Distance (km) Brightness Sun altitude
Exits shadow 02:08:45 22° 31° (NNE) 952 -1.3 -26.6°
Drops below altitude 10° 02:10:09 10° 43° (NE) 1,470 -0.3 -26.6°
Sets 02:12:19 0° 51° (NE) 2,333 0.7 -26.5°
